[[{"header":{"parameterUnit":"m.s-1","parameterCategory":1,"la1":30.2991,"la2":30.254,"lo1":-89.0895,"lo2":-89.0444,"dy":0.0017,"dx":0.0017,"nx":28,"ny":28,"refTime":"2023-10-10T09:00:00:Z","depth":0,"parameterNumber":2,"parameterNumberName":"U-component_of_WINDS"},"data":[0,0,0,0,0,0,0,0,0,0,0,0,0,0,0,0,0,0,0,0,0,0,0,0,0,0,0,0,0,0,0,0,0,0,0,0,0,0,0,0,0,0,0,0,0,0,0,0,0,0,0,0,0,0,0,0,0,0,-10.0269,-10.0272,0,-10.0502,-10.0504,-10.0507,-10.039,-10.0384,-10.0378,-10.0372,-10.0604,-10.0616,-10.0628,0,0,0,0,0,0,0,0,0,0,0,0,0,-9.9713,-9.9724,-10.0269,-10.0272,-10.0275,-10.0501,-10.0505,-10.0508,-10.0391,-10.0384,-10.0376,-10.0369,-10.0601,-10.0615,-10.0629,0,0,0,0,0,0,0,0,0,0,0,0,0,-9.9951,-9.9728,-10.0268,-10.0244,-10.0244,-10.0501,-10.0505,-10.0509,-10.0393,-10.0383,-10.0374,-10.0366,-10.0596,-10.0613,-10.0631,-10.0923,0,0,-10.0685,-10.0693,0,0,0,0,0,0,0,0,-9.9938,-9.9972,-10.0245,-10.0246,-10.0247,-10.0408,-10.0394,-10.0647,-10.0395,-10.0336,-10.0372,-10.0361,-10.0546,-10.0567,-10.0631,-10.0934,-10.0944,-10.0687,-10.0697,-10.0705,-10.071,0,0,0,0,0,0,0,-9.9922,-9.9961,-10.0361,-10.0249,-10.025,-10.0218,-10.0242,-10.0441,-10.0489,-10.034,-10.0333,-10.0362,-10.0545,-10.0614,-10.0635,-10.0947,-10.0686,-10.0702,-10.0713,-10.072,-10.1496,-10.1506,0,0,0,0,0,0,-9.9907,-9.9948,-10.0353,-10.0368,-10.0067,-10.0236,-10.0262,-10.0365,-10.0487,-10.0497,-10.037,-10.0356,-10.0588,-10.0615,-10.0643,-10.099,-10.0705,-10.0722,-10.0732,-10.1486,-10.1498,-10.1509,0,0,0,0,0,0,-9.9896,-9.9945,-10.0344,-10.0156,-10.0204,-10.0255,-10.0371,-10.0374,-10.0444,-10.0509,-10.0516,-10.0432,-10.0582,-10.0618,-10.0854,-10.0996,-10.073,-10.0746,-10.1475,-10.149,-10.1504,-10.1688,0,0,0,0,0,0,-9.9881,-9.9941,-10.0055,-10.016,-10.0215,-10.0554,-10.038,-10.0386,-10.0475,-10.0459,-10.0569,-10.0579,-10.0577,-10.0828,-10.0871,-10.1016,-10.076,-10.1462,-10.1481,-10.1499,-10.167,-10.1708,-10.174,0,0,0,0,0,-9.9861,-10.0098,-10.0062,-10.0111,-10.0359,-10.0563,-10.0594,-10.059,-10.0488,-10.0601,-10.0642,-10.0575,-10.0974,-10.0853,-10.0901,-10.1053,-10.1453,-10.1476,-10.1498,-10.1654,-10.17,-10.1739,0,0,0,0,0,0,-10.0008,-10.0111,-10.0072,-10.0351,-10.0449,-10.0542,-10.0685,-10.0639,-10.0767,-10.0747,-10.0734,-10.0759,-10.1003,-10.1052,-10.0915,-10.134,-10.1197,-10.123,-10.1299,-10.1344,-10.1379,-10.1361,-10.0774,0,0,0,0,0,-10.0073,-10.0232,-10.0313,-10.055,-10.0601,-10.0635,-10.0724,-10.0712,-10.0812,-10.0853,-10.0911,-10.1009,-10.1155,-10.1253,-10.1392,-10.1676,-10.1696,-10.1804,-10.1839,-10.1868,-10.1896,-10.2046,-10.2094,-10.1583,-10.1583,-10.1582,0,0,-10.0208,-10.0284,-10.0386,-10.0581,-10.0656,-10.0818,-10.0671,-10.085,-10.0968,-10.0879,-10.1105,-10.1151,-10.1259,-10.1519,-10.1637,-10.1567,-10.2042,-10.1897,-10.1919,-10.1932,-10.2074,-10.2122,-10.2165,-10.1598,-10.1595,-10.1593,0,0,-10.0537,-10.0613,-10.0817,-10.0895,-10.101,-10.103,-10.1079,-10.118,-10.1207,-10.1434,-10.1369,-10.1508,-10.1763,-10.1841,-10.1914,-10.2269,-10.2211,-10.2315,-10.2499,-10.2645,-10.2685,-10.272,-10.2843,-10.2888,-10.2343,-10.2343,-10.2344,0,-10.0691,-10.0935,-10.0927,-10.111,-10.1196,-10.1124,-10.1328,-10.1403,-10.1557,-10.1616,-10.1536,-10.1852,-10.192,-10.2195,-10.2281,-10.2344,-10.2396,-10.2302,-10.268,-10.2716,-10.2749,-10.2866,-10.2913,-10.2355,-10.2354,-10.2352,-10.2351,0,-10.1115,-10.1285,-10.1436,-10.1588,-10.169,-10.1883,-10.1901,-10.2006,-10.1984,-10.2011,-10.224,-10.2319,-10.247,-10.2535,-10.2516,-10.2807,-10.276,-10.2681,-10.2537,-10.2809,-10.2919,-10.2964,-10.2372,-10.2367,-10.2364,-10.2361,0,0,-10.1545,-10.1688,-10.1743,-10.1809,-10.193,-10.2059,-10.2246,-10.2396,-10.2484,-10.2592,-10.2746,-10.2961,-10.2888,-10.2971,-10.2959,-10.3087,-10.3358,-10.2992,-10.2994,-10.3054,-10.368,-10.3737,-10.3789,-10.3321,-10.333,-10.3337,-10.3669,0,-10.188,-10.2211,-10.2208,-10.2512,-10.2666,-10.2598,-10.276,-10.2849,-10.2879,-10.3011,-10.3043,-10.3195,-10.3088,-10.3137,-10.3262,-10.33,-10.3483,-10.3276,-10.3461,-10.3468,-10.3434,-10.3847,-10.391,-10.422,-10.3713,-10.372,-10.3725,0,-10.2317,-10.2439,-10.276,-10.2853,-10.2918,-10.3064,-10.3199,-10.3328,-10.3425,-10.3437,-10.3529,-10.3496,-10.3682,-10.3534,-10.3788,-10.3646,-10.3721,-10.3751,-10.3763,-10.3778,-10.3612,-10.3871,-10.4319,-10.4365,-10.3793,-10.3788,-10.3783,0,-10.2594,-10.2839,-10.3061,-10.312,-10.3236,-10.334,-10.3392,-10.3482,-10.357,-10.3687,-10.3743,-10.388,-10.3954,-10.4059,-10.4062,-10.3955,-10.4317,-10.417,-10.4329,-10.4329,-10.4408,-10.4403,-10.4872,-10.4461,-10.446,-10.4459,-10.4458,0,-10.2968,-10.3166,-10.3187,-10.3324,-10.3541,-10.3534,-10.3748,-10.3791,-10.387,-10.401,-10.3959,-10.4091,-10.4088,-10.4222,-10.4225,-10.4432,-10.4467,-10.4479,-10.4477,-10.4483,-10.4481,-10.4531,-10.4508,-10.4471,-10.4469,-10.4466,-10.4464,0,-10.3315,-10.3338,-10.3575,-10.3665,-10.3691,-10.3848,-10.3922,-10.405,-10.4074,-10.4252,-10.4294,-10.4331,-10.4485,-10.4499,-10.4678,-10.4679,-10.4929,-10.4905,-10.4897,-10.4892,-10.5049,-10.5033,-10.5565,-10.5632,-10.518,-10.5184,-10.5188,0,-10.3552,-10.3702,-10.3807,-10.3898,-10.3957,-10.4105,-10.4195,-10.4191,-10.4287,-10.4407,-10.452,-10.4669,-10.4788,-10.5037,-10.5078,-10.5213,-10.519,-10.5367,-10.521,-10.5209,-10.5189,-10.5179,-10.5192,-10.5397,-10.5402,-10.5406,-10.5409,0,-10.3967,-10.397,-10.4103,-10.424,-10.4349,-10.4456,-10.4556,-10.4632,-10.464,-10.4749,-10.4907,-10.4999,-10.5181,-10.5328,-10.546,-10.551,-10.546,-10.5458,-10.5502,-10.5508,-10.5496,-10.5501,-10.4977,-10.5446,-10.5442,-10.5439,-10.5437,-10.5436,-10.4264,-10.4393,-10.4487,-10.4635,-10.471,-10.4803,-10.4927,-10.4966,-10.5098,-10.5246,-10.5235,-10.5408,-10.5497,-10.5669,-10.5729,-10.5862,-10.5802,-10.5866,-10.5882,-10.5897,-10.5912,-10.5476,-10.5886,-10.5885,-10.5884,-10.5883,-10.5883,0,-10.4675,-10.4731,-10.4868,-10.5009,-10.5125,-10.5069,-10.5175,-10.5275,-10.5428,-10.5517,-10.5635,-10.5813,-10.5955,-10.6006,-10.6143,-10.6239,-10.6219,-10.6275,-10.6267,-10.6278,-10.5959,-10.5907,-10.6288,-10.6288,-10.6288,-10.6288,-10.6288,-10.6288,-10.4902,-10.5116,-10.5129,-10.5378,-10.5431,-10.5602,-10.5667,-10.5751,-10.5821,-10.6023,-10.6141,-10.6174,-10.6246,-10.6387,-10.6513,-10.6524,-10.6575,-10.664,-10.6641,-10.6342,-10.6301,-10.6262,-10.6212,-10.6652,-10.6653,-10.6949,-10.6952,-10.6954]},{"header":{"parameterUnit":"m.s-1","parameterCategory":1,"la1":30.2991,"la2":30.254,"lo1":-89.0895,"lo2":-89.0444,"dy":0.0017,"dx":0.0017,"nx":28,"ny":28,"refTime":"2023-10-10T09:00:00:Z","depth":0,"parameterNumber":3,"parameterNumberName":"V-component_of_WINDS"},"data":[0,0,0,0,0,0,0,0,0,0,0,0,0,0,0,0,0,0,0,0,0,0,0,0,0,0,0,0,0,0,0,0,0,0,0,0,0,0,0,0,0,0,0,0,0,0,0,0,0,0,0,0,0,0,0,0,0,0,-1.2992,-1.2988,0,-1.2647,-1.2643,-1.2639,-1.2487,-1.2487,-1.2488,-1.2488,-1.2137,-1.2127,-1.2118,0,0,0,0,0,0,0,0,0,0,0,0,0,-1.3518,-1.3509,-1.2992,-1.2988,-1.2984,-1.2648,-1.2643,-1.2638,-1.2487,-1.2487,-1.2488,-1.2489,-1.214,-1.2129,-1.2117,0,0,0,0,0,0,0,0,0,0,0,0,0,-1.3243,-1.3506,-1.2993,-1.2867,-1.2853,-1.2649,-1.2643,-1.2637,-1.2487,-1.2487,-1.2488,-1.2489,-1.2144,-1.213,-1.2115,-1.2011,0,0,-1.207,-1.2064,0,0,0,0,0,0,0,0,-1.3259,-1.3224,-1.289,-1.2876,-1.2859,-1.2611,-1.2699,-1.2427,-1.2487,-1.2626,-1.2488,-1.2489,-1.2294,-1.2267,-1.2201,-1.1994,-1.1979,-1.2069,-1.206,-1.2054,-1.205,0,0,0,0,0,0,0,-1.3278,-1.3238,-1.2856,-1.2886,-1.2866,-1.2828,-1.279,-1.2647,-1.246,-1.2614,-1.2602,-1.2563,-1.2286,-1.2216,-1.2192,-1.1974,-1.2069,-1.2056,-1.2047,-1.2042,-1.1659,-1.1658,0,0,0,0,0,0,-1.3318,-1.3255,-1.2867,-1.2845,-1.3065,-1.2818,-1.2775,-1.269,-1.2461,-1.2427,-1.2563,-1.2557,-1.224,-1.2209,-1.2179,-1.2038,-1.2054,-1.204,-1.2032,-1.1661,-1.1659,-1.1658,0,0,0,0,0,0,-1.333,-1.3285,-1.2881,-1.3047,-1.2992,-1.2808,-1.2714,-1.2683,-1.2612,-1.2423,-1.2389,-1.2525,-1.224,-1.2199,-1.2052,-1.2024,-1.2034,-1.202,-1.1662,-1.166,-1.1658,-1.1759,0,0,0,0,0,0,-1.3345,-1.329,-1.3249,-1.3047,-1.2984,-1.2761,-1.2712,-1.2675,-1.2587,-1.2576,-1.2379,-1.2347,-1.2237,-1.2075,-1.2038,-1.2004,-1.2009,-1.1664,-1.1661,-1.1659,-1.1758,-1.1761,-1.1764,0,0,0,0,0,-1.3365,-1.3292,-1.3248,-1.3202,-1.2929,-1.276,-1.2724,-1.2598,-1.2586,-1.2542,-1.242,-1.2353,-1.2033,-1.2061,-1.2018,-1.198,-1.1665,-1.1662,-1.1659,-1.1756,-1.176,-1.1764,0,0,0,0,0,0,-1.3498,-1.3264,-1.3212,-1.3072,-1.2937,-1.2734,-1.2676,-1.2607,-1.2474,-1.2469,-1.232,-1.2276,-1.2142,-1.2046,-1.2081,-1.1864,-1.1843,-1.1832,-1.1932,-1.1934,-1.1937,-1.1963,-1.1997,0,0,0,0,0,-1.351,-1.3393,-1.3195,-1.309,-1.3025,-1.2863,-1.2784,-1.2699,-1.2553,-1.2495,-1.2362,-1.2224,-1.2091,-1.2007,-1.1875,-1.1743,-1.1696,-1.1694,-1.1698,-1.1701,-1.1693,-1.1612,-1.1608,-1.1648,-1.1648,-1.1648,0,0,-1.3536,-1.3394,-1.3329,-1.3113,-1.2998,-1.2879,-1.2816,-1.2693,-1.2602,-1.2477,-1.2329,-1.2227,-1.2061,-1.192,-1.1852,-1.1836,-1.1671,-1.1697,-1.1702,-1.169,-1.1608,-1.1605,-1.1601,-1.1646,-1.1646,-1.1646,0,0,-1.3521,-1.3403,-1.3301,-1.3186,-1.3013,-1.2904,-1.288,-1.2687,-1.2613,-1.2463,-1.2365,-1.2255,-1.2031,-1.1916,-1.1829,-1.1766,-1.1699,-1.1727,-1.1743,-1.1666,-1.1663,-1.166,-1.1635,-1.1628,-1.1719,-1.172,-1.172,0,-1.3576,-1.3391,-1.3258,-1.3138,-1.3045,-1.2925,-1.2819,-1.2715,-1.2508,-1.2446,-1.2431,-1.2145,-1.2025,-1.1854,-1.1838,-1.1772,-1.1738,-1.1749,-1.1674,-1.1669,-1.1664,-1.1639,-1.163,-1.1724,-1.1724,-1.1723,-1.1723,0,-1.3465,-1.3339,-1.3277,-1.3078,-1.2978,-1.2867,-1.2715,-1.263,-1.2552,-1.2445,-1.2291,-1.2143,-1.1977,-1.193,-1.1855,-1.1747,-1.1742,-1.1703,-1.1679,-1.1667,-1.1641,-1.163,-1.1731,-1.1729,-1.1728,-1.1727,0,0,-1.3527,-1.3252,-1.3232,-1.3138,-1.2935,-1.2835,-1.2717,-1.2553,-1.2482,-1.2342,-1.2238,-1.2049,-1.201,-1.1911,-1.1821,-1.1753,-1.171,-1.1721,-1.1715,-1.1723,-1.1579,-1.1609,-1.16,-1.1664,-1.1661,-1.1659,-1.1592,0,-1.3483,-1.3266,-1.314,-1.2975,-1.2854,-1.2736,-1.2633,-1.2497,-1.2393,-1.2276,-1.2161,-1.2028,-1.1988,-1.1927,-1.1855,-1.1731,-1.1679,-1.1734,-1.1564,-1.156,-1.1609,-1.1587,-1.1619,-1.1562,-1.1581,-1.1579,-1.1578,0,-1.3404,-1.3264,-1.3086,-1.2893,-1.2838,-1.2748,-1.2586,-1.2475,-1.2318,-1.2246,-1.2134,-1.2043,-1.1912,-1.1898,-1.1715,-1.1755,-1.1678,-1.1606,-1.16,-1.1579,-1.1568,-1.1564,-1.1541,-1.1533,-1.1561,-1.1562,-1.1563,0,-1.3464,-1.3231,-1.3093,-1.3017,-1.279,-1.2729,-1.2631,-1.2474,-1.2382,-1.2241,-1.2179,-1.2025,-1.1941,-1.1823,-1.1692,-1.1694,-1.152,-1.1496,-1.1456,-1.1459,-1.1425,-1.1429,-1.1389,-1.1378,-1.1378,-1.1378,-1.1378,0,-1.3428,-1.3323,-1.3117,-1.3033,-1.2911,-1.2766,-1.265,-1.2543,-1.2403,-1.2294,-1.2183,-1.2084,-1.1917,-1.1797,-1.1693,-1.1555,-1.1519,-1.1456,-1.143,-1.1465,-1.1473,-1.1413,-1.1413,-1.1376,-1.1376,-1.1377,-1.1377,0,-1.3475,-1.3333,-1.3174,-1.2971,-1.2917,-1.2836,-1.2661,-1.2574,-1.2463,-1.2327,-1.2286,-1.2112,-1.1964,-1.1821,-1.1624,-1.1554,-1.1416,-1.1382,-1.1469,-1.1454,-1.1421,-1.1426,-1.134,-1.1321,-1.1325,-1.1326,-1.1326,0,-1.3461,-1.3377,-1.3163,-1.3082,-1.2986,-1.2857,-1.2762,-1.2616,-1.2522,-1.2334,-1.2269,-1.2112,-1.1979,-1.1747,-1.1603,-1.145,-1.141,-1.1391,-1.1387,-1.1424,-1.1407,-1.1414,-1.1403,-1.1395,-1.1395,-1.1396,-1.1396,0,-1.345,-1.3383,-1.325,-1.3092,-1.2981,-1.285,-1.2715,-1.2654,-1.2482,-1.2381,-1.2228,-1.2124,-1.192,-1.1765,-1.1595,-1.1493,-1.1415,-1.1398,-1.138,-1.1416,-1.1469,-1.1437,-1.1477,-1.1401,-1.1401,-1.14,-1.14,-1.14,-1.3464,-1.3383,-1.3219,-1.3074,-1.2956,-1.2831,-1.2738,-1.2614,-1.2483,-1.2305,-1.2226,-1.2071,-1.1911,-1.1674,-1.1573,-1.1449,-1.143,-1.1405,-1.1398,-1.1394,-1.1401,-1.1489,-1.1417,-1.1417,-1.1417,-1.1416,-1.1416,0,-1.3446,-1.3334,-1.3202,-1.3014,-1.29,-1.2835,-1.2681,-1.2589,-1.2453,-1.2311,-1.2181,-1.2003,-1.1851,-1.1693,-1.1532,-1.1462,-1.1422,-1.1425,-1.1428,-1.1405,-1.1428,-1.1458,-1.146,-1.146,-1.146,-1.146,-1.146,-1.146,-1.3423,-1.3281,-1.3194,-1.2991,-1.2879,-1.2725,-1.2642,-1.2525,-1.241,-1.2216,-1.2089,-1.1987,-1.1837,-1.1663,-1.1521,-1.1478,-1.1423,-1.1435,-1.1383,-1.1407,-1.1404,-1.1402,-1.143,-1.1425,-1.1425,-1.137,-1.137,-1.1369]}]]